#timestamp,LO_Frequency,Hit,StdDev 
1588633415.6,286047002.6,P
1588633435.5,286047000.8,P
1588633455.3,286046999.4,N
1588633475.2,286046997.6,N
1588633495.9,286046995.4,N
1588633515.7,286046996.1,N
1588633535.6,286046996.0,N
1588633555.4,286046996.4,N
1588633575.2,286046995.6,N
1588633595.1,286046995.2,N
1588633596.0,286046995.2,N
1588633615.8,286046998.5,N
1588633635.7,286047000.7,N
1588633655.5,286046998.5,N
1588633675.3,286047001.0,N
1588633695.2,286046999.9,N
1588633715.9,286047002.5,N
1588633735.7,286047004.1,N
1588633755.6,286047001.7,N
1588633775.4,286047001.7,N
1588633795.3,286047001.5,N
1588633815.1,286047001.9,N
1588633816.0,286047001.9,N
1588633835.8,286047001.4,N
1588633855.7,286047001.4,N
1588633875.5,286047006.0,N
1588633895.3,286047007.5,N
1588633915.2,286047003.1,N
1588633935.0,286047005.3,N
1588633935.9,286047005.3,N
1588633955.8,286047002.9,N
1588633975.6,286047003.8,N
1588633995.4,286047003.8,N
1588634015.3,286047003.7,N
1588634035.1,286047003.7,N
1588634055.8,286047006.8,N
1588634075.7,286047006.1,N
1588634095.5,286047007.6,N
1588634115.4,286047005.4,N
1588634135.2,286047005.3,N
1588634155.0,286047006.9,N
1588634155.9,286047006.9,N
1588634175.8,286047006.8,N
1588634195.6,286047004.6,N
1588634215.4,286047005.1,N
1588634235.3,286047006.8,Y
1588634255.1,286047004.4,P
1588634275.9,286047003.6,P
1588634295.7,286047003.5,P
1588634315.5,286047003.8,Y
1588634335.4,286047001.0,P
1588634355.2,286047001.9,N
1588634375.1,286047002.4,N
1588634376.0,286047002.4,N
1588634395.8,286047000.4,N
1588634415.6,286047002.6,N
1588634435.5,286047004.3,Y
1588634455.3,286047000.2,P
1588634475.1,286046999.9,N
1588634495.9,286047000.4,N
1588634515.7,286047002.2,N
1588634535.6,286047005.6,Y
1588634555.4,286047005.9,P
1588634575.2,286047007.2,N
1588634595.1,286047006.7,N
1588634596.0,286047006.7,N
1588634615.8,286047006.4,N
1588634635.7,286047008.6,Y
1588634655.5,286047003.5,P
1588634675.3,286047003.2,N
1588634695.2,286047002.0,N
1588634715.0,286046999.7,N
1588634715.9,286046999.7,N
1588634735.7,286047001.9,N
1588634755.6,286047003.3,N
1588634775.4,286047003.2,N
1588634795.3,286047003.2,N
1588634815.1,286047006.0,Y
1588634816.0,286047006.0,P
1588634835.8,286047001.8,N
1588634855.7,286047001.5,N
1588634875.5,286047001.8,N
1588634895.4,286047002.6,N
1588634915.2,286047001.8,N
1588634935.0,286047001.9,N
1588634935.9,286047001.9,N
1588634955.8,286046999.7,N
1588634975.6,286047000.4,N
1588634995.4,286046999.8,N
1588635015.3,286047001.5,N
1588635035.1,286047002.7,N
1588635055.9,286046999.8,N
1588635075.7,286047001.4,N
1588635095.5,286047005.8,Y
1588635115.4,286047005.8,P
1588635135.2,286047004.6,N
1588635155.0,286047006.0,P
1588635155.9,286047006.0,Y
1588635175.8,286047000.2,P
1588635195.6,286047002.4,N
1588635215.5,286047004.2,N
1588635235.3,286047004.2,N
1588635255.1,286047005.8,Y
1588635275.9,286047004.4,P
1588635295.7,286047004.0,P
1588635315.6,286047003.3,P
1588635335.4,286047006.0,Y
1588635355.2,286047001.2,P
1588635375.1,286047000.2,N
1588635376.0,286047000.2,N
1588635395.8,286047002.2,N
1588635415.6,286047002.8,N
1588635435.5,286047001.4,N
1588635455.3,286047003.6,N
1588635475.2,286047006.0,Y
1588635495.9,286047003.3,P
1588635515.7,286047005.9,P
1588635535.6,286047003.2,N
1588635555.4,286047001.4,N
1588635575.2,286047004.4,N
1588635595.1,286047001.8,N
1588635626.0,286047004.2,E
1588635635.0,286047001.5,N
1588635635.9,286047001.5,P
1588635655.8,286047002.2,P
1588635675.6,286047002.3,Y
1588635695.5,286047001.0,P
1588635715.3,286047000.3,N
1588635735.1,286047002.2,P
1588635755.9,286047003.5,Y
1588635775.7,286047006.0,P
1588635795.6,286047006.0,N
1588635815.4,286047005.9,N
1588635835.2,286047006.0,N
1588635855.1,286047005.6,N
1588635856.0,286047005.6,Y
1588635875.8,286047000.6,P
1588635895.7,286047001.2,N
1588635915.5,286047002.7,N
1588635935.3,286047002.4,N
1588635955.2,286047001.3,N
1588635975.9,286047003.4,N
1588635995.7,286047003.0,N
1588636015.6,286047005.7,Y
1588636035.4,286047002.9,P
1588636055.3,286047006.0,P
1588636075.1,286047005.8,P
1588636076.0,286047005.8,Y
1588636095.8,286047000.4,P
1588636115.7,286047001.5,N
1588636135